Regional Weather Roundup
Issued by NWS Newport/Morehead, NC

Current Version | Previous Version | Graphics & Text | Print | Product List | Glossary Off
Versions: 1 2 3 4 5 6 7 8 9 10 11 12 13 14 15 16 17 18 19 20 21 22 23 24 25 26 27 28 29 30 31 32 33 34 35 36 37 38 39 40 41 42 43 44 45 46 47 48 49 50

000
ASUS42 KMHX 192014
RWRMHX
WEATHER ROUNDUP FOR EASTERN NORTH CAROLINA
NATIONAL WEATHER SERVICE NEWPORT/MOREHEAD CITY NC
400 PM EDT SAT AUG 19 2017

NOTE: "FAIR" INDICATES FEW OR NO CLOUDS BELOW 12,000 FEET
WITH NO SIGNIFICANT WEATHER AND/OR OBSTRUCTIONS TO VISIBILITY

NCZ015>017-031-032-045>047-102-103-192100-
NORTH COAST

CITY           SKY/WX    TMP DP  RH WIND       PRES   REMARKS
EDENTON        CLOUDY    92  74  55 CALM      29.91S HX 102
ELIZABETH CITY PTSUNNY   86  77  74 E12       29.90S
KITTY HAWK     CLOUDY    83  75  75 CALM      29.90F
MANTEO         CLOUDY    85  74  69 N3        29.91S

$$

NCZ045>047-081-094-103-104-192100-
CENTRAL COAST

CITY           SKY/WX    TMP DP  RH WIND       PRES   REMARKS
FRISCO         CLOUDY    81  76  84 W9G21     29.92F

$$

NCZ095-097-098-100-101-192100-
SOUTHERN COAST

CITY           SKY/WX    TMP DP  RH WIND       PRES   REMARKS
BEAUFORT       CLOUDY    79  76  90 W16       29.95R
CEDAR ISLAND   NOT AVBL
JACKSONVILLE   TSTM      76  76 100 W9        29.94S
PINEY ISLAND   HVY RAIN N/A N/A N/A S10       29.95R
WILMINGTON     MOSUNNY   81  75  82 NE5       29.94S


$$

NCZ011>013-027>030-043-044-078>080-089-090>093-098-192100-
COASTAL PLAIN

CITY           SKY/WX    TMP DP  RH WIND       PRES   REMARKS
AHOSKIE          N/A     87  73  61 CALM      29.91S
CLINTON        CLOUDY    86  73  66 CALM      29.93R
ELIZABETHTOWN  NOT AVBL
GOLDSBORO      MOSUNNY   89  69  51 NE3       29.92S
GREENVILLE     CLOUDY    90  72  55 N3        29.94R
HAVELOCK       TSTM      77  74  90 SW15G22   29.97R FOG
KENANSVILLE    CLOUDY    81  75  83 SE5       29.94R
KINSTON        NOT AVBL
NEW BERN       TSTM      75  75 100 S22       29.98R VSB 1/4
RICHLANDS      TSTM      73  73 100 N8        29.95F FOG
ROCKY MOUNT    CLOUDY    90  68  48 NW7       29.92F
WASHINGTON     PTSUNNY   87  74  66 CALM      29.91R
WHITEVILLE     CLOUDY    78  74  88 CALM      29.93R

$$

AMZ130-135-150-152-154-156-158-170-250-252-270-ANZ085-086-088-633-658-670-192100-
MARINE OBSERVATIONS

STATION/POSITION TIME  TEMP    WIND        PRES    WAVE   SWELL
                       AIR SEA DIR/SP/G            HT/PER HT/PER
                 (UTC) (F)     (DEG/KT/KT) (MB)    (FT/S) (FT/S)
CHESAPEAKE LIGHT NOT AVBL
64 E VA BEACH    1950   79 79  280/  4/  4 1013.1    3/ 6   3/ 6
DUCK             1942   82 76   40/  6/  7 1012.5
2 E DUCK         2000      82                N/A     2/ 8
OREGON INLET     1942   83 85   90/  5/  7 1012.9
13E OREGON INLT  1948      82                N/A     3/ 6   3/ 6
HATTERAS CG      1942   80 83  240/  8/ 16 1012.8
DIAMOND BUOY     1950   82 84  240/ 14/ 16 1013.3    4/ 6   2/ 7
CAPE LOOKOUT     2000   85     230/ 10/ 15 1013.7
BEAUFORT LAB     1942   83 83  280/  5/  9 1013.0
30 SE NEW RVR IN 1908   83 84  220/ 14/ 21 1013.4
30 SE NEW RVR IN 1943      84                N/A     4/ 6   2/29
27 SE WRIGHTSVLE 1908   85 84  200/ 14/ 19 1013.3
5 SE WRIGHTSVLE  1908   84 83  220/ 14/ 19 1013.5
225 S CAPE HAT   1950   84 85  200/ 12/ 14 1016.1    4/ 8   3/ 8
41 SE CHARLESTON 2000   84 85  220/ 14/ 16 1013.4

$$



USA.gov is the U.S. government's official web portal to all federal, state and local government web resources and services.